Theta_e
353 350 349 345 338 332 331 331 331 333 335 335 334 333 331 331 333 335 336 335 334 335 334 337 331 319 321 324 327 328 327 327 329 329 329 332 339 341 340 337 335 334 335
347 349 349 345 336 333 332 331 331 334 334 334 333 331 329 329 329 329 329 330 331 334 336 330 320 319 323 327 331 331 329 333 340 336 332 327 332 337 331 327 330 332 332
347 349 349 344 336 333 332 332 332 334 334 334 333 332 333 336 337 336 336 336 336 334 326 321 317 320 325 329 331 330 333 338 342 345 346 337 328 330 327 326 330 336 331
345 347 348 344 337 334 334 332 332 335 334 334 333 332 334 335 337 338 338 338 334 325 320 318 317 320 324 329 331 331 331 335 337 337 340 345 333 332 331 334 332 338 334
346 346 348 345 339 335 337 333 332 335 334 333 333 332 333 335 336 337 336 332 326 320 319 317 317 320 323 326 329 331 332 332 333 335 333 343 339 333 335 335 333 330 333
347 346 347 346 342 337 338 338 333 335 335 333 333 333 332 332 331 331 330 327 321 319 317 316 316 318 323 326 329 329 329 328 330 330 330 337 339 336 337 335 331 329 329
346 347 347 347 345 340 339 340 337 334 336 335 333 332 332 331 330 329 327 324 319 319 317 317 316 316 316 319 321 322 322 321 322 328 330 334 340 338 337 333 333 332 330
342 346 347 347 347 344 341 341 341 337 335 336 335 333 333 331 329 327 324 321 319 318 318 317 318 318 317 317 317 317 318 318 318 321 329 330 339 339 333 331 333 334 334
341 344 347 347 347 346 345 344 343 343 337 336 337 336 334 333 331 329 325 321 319 318 318 318 318 318 318 318 318 318 318 318 317 317 324 330 333 335 330 331 331 333 335
343 343 344 345 347 346 346 345 345 345 344 339 337 338 338 335 332 329 326 323 320 319 318 318 318 318 318 318 317 318 318 319 319 321 325 329 332 331 331 332 329 327 333
350 342 341 342 343 343 344 344 345 345 345 345 339 338 340 339 336 332 329 325 321 320 319 319 318 318 318 318 318 321 328 332 328 329 328 330 331 331 331 333 326 323 329
351 345 342 341 341 342 342 343 345 346 348 347 344 339 339 342 340 334 330 326 322 320 320 320 319 319 318 318 319 321 331 336 336 336 336 335 334 331 333 334 326 323 327
352 349 345 340 340 340 341 342 342 346 348 348 347 343 340 342 343 339 333 329 325 322 321 321 320 320 319 319 322 332 335 337 339 339 340 339 337 333 335 336 331 329 329
354 351 347 341 339 338 337 337 337 341 343 347 347 347 344 343 344 342 337 332 327 323 323 321 319 319 319 320 325 335 343 343 342 342 344 342 338 334 339 340 335 334 334
353 352 348 341 336 338 338 339 340 338 339 339 344 346 346 346 345 344 341 339 333 326 326 327 323 320 320 327 338 344 346 346 346 345 345 343 339 339 341 342 339 337 337
350 350 348 342 340 341 341 343 344 343 339 338 338 341 343 345 346 345 343 341 339 336 334 334 329 324 321 336 339 343 347 347 347 347 346 345 344 343 344 343 341 339 337
344 348 349 348 347 346 344 346 346 345 344 343 341 338 338 338 341 343 343 341 342 339 337 338 338 332 324 334 341 341 345 346 348 348 347 347 347 346 345 344 343 342 340
343 347 349 349 347 347 347 350 350 349 346 346 346 342 339 338 335 340 341 341 341 340 338 340 341 337 333 334 338 342 344 347 348 348 346 346 347 346 345 345 344 343 341
336 346 348 348 347 348 340 340 353 353 352 350 347 343 342 340 339 340 339 338 342 341 340 342 342 341 339 339 340 341 341 345 346 347 346 347 347 346 345 346 344 344 343
333 340 347 349 348 342 340 339 349 340 350 354 352 345 343 341 340 340 340 341 341 342 342 342 343 343 343 342 341 340 339 344 342 337 341 345 347 346 344 343 344 344 343
334 340 343 342 336 344 346 345 341 349 352 350 352 350 352 349 342 342 342 344 344 342 342 342 340 341 342 341 340 341 341 339 337 336 341 346 347 345 342 344 343 344 344
337 339 338 333 329 327 327 339 351 351 350 350 349 347 348 348 349 347 345 345 346 346 344 343 343 342 342 341 340 339 337 339 340 341 343 344 343 343 342 341 343 345 344
322 322 324 326 326 326 325 325 327 331 333 332 330 334 337 344 345 346 346 346 344 343 342 343 343 343 343 343 342 340 338 340 335 339 343 342 343 343 339 337 346 344 343
326 326 326 326 326 328 331 331 331 330 330 330 330 330 330 331 333 340 344 344 342 336 331 337 343 343 342 344 342 342 340 337 336 335 341 343 344 344 339 338 346 341 344
326 327 329 331 331 331 330 330 330 330 331 330 330 331 332 332 332 332 335 341 340 334 335 337 336 340 341 341 342 341 341 340 340 334 336 337 342 342 339 341 344 342 341
323 323 323 323 323 324 324 324 324 325 327 330 330 330 328 328 330 332 334 336 338 336 332 328 331 334 339 340 340 341 340 332 327 325 326 330 332 334 342 342 342 340 340
Wind_Speed
28 28 27 26 25 25 24 24 24 23 22 22 21 21 22 24 25 25 24 22 21 19 15 13 11 11 12 14 14 14 14 14 13 13 12 11 11 12 13 12 11 12 11
39 30 27 26 26 26 25 25 24 23 23 22 21 20 22 24 24 24 22 20 19 16 15 13 12 13 14 14 14 13 12 12 11 11 10 10 10 10 9 11 11 11 10
37 32 28 26 26 25 25 25 25 24 23 22 21 22 23 22 22 21 20 18 16 14 13 12 13 14 14 14 13 12 11 11 10 7 5 6 7 9 10 10 9 9 10
37 34 30 28 26 26 24 25 24 23 23 22 21 21 21 20 19 18 16 15 13 12 12 11 12 12 12 11 10 9 9 8 6 5 2 5 7 10 9 8 7 7 9
36 33 31 29 27 26 24 24 24 23 22 22 21 20 20 19 18 16 15 13 12 11 11 11 11 11 10 9 9 8 7 6 5 4 4 4 13 10 7 6 7 6 6
33 32 31 29 27 26 25 23 23 23 22 21 21 19 19 18 17 16 14 13 12 12 11 10 10 10 10 9 9 8 8 7 6 3 3 5 13 10 7 5 5 5 6
32 31 31 29 27 26 24 23 22 22 22 21 20 19 18 17 16 15 14 13 12 12 11 11 10 10 10 9 8 7 7 6 7 6 3 3 16 12 7 6 7 6 6
33 32 31 29 27 26 24 23 22 22 22 21 20 19 18 18 17 17 17 16 15 14 13 12 11 11 10 9 8 7 6 6 6 6 5 2 13 13 9 7 8 8 8
29 31 30 29 27 25 24 23 22 21 22 22 21 20 19 18 17 17 18 17 17 16 15 14 13 11 10 9 8 8 7 7 7 7 8 6 12 14 9 8 9 10 9
31 32 31 29 28 27 25 23 23 23 23 23 23 21 20 20 19 19 18 17 16 16 15 14 13 12 11 10 9 9 8 8 8 8 10 9 11 13 11 9 10 11 11
30 34 35 34 31 28 26 24 23 23 24 25 24 23 21 20 19 18 19 18 17 17 17 16 15 13 12 11 10 10 9 9 10 10 12 12 12 16 13 11 10 11 12
29 35 38 36 34 29 27 24 23 23 25 26 26 26 24 22 21 21 21 20 20 20 18 17 16 14 14 14 13 14 14 11 12 12 13 13 13 17 13 12 11 12 12
28 27 37 37 35 33 29 25 24 24 25 28 28 29 27 25 23 23 22 22 23 22 21 20 19 19 18 16 16 16 17 17 16 14 14 16 17 17 13 10 12 12 13
25 28 34 37 36 34 33 32 29 29 28 29 30 29 28 28 28 27 26 27 27 26 25 23 22 20 19 19 18 17 17 18 19 17 12 16 19 18 14 11 13 13 13
28 31 34 38 37 37 35 32 31 33 31 29 31 32 31 32 31 29 28 28 30 29 28 26 26 24 22 20 19 19 17 16 17 15 13 10 13 16 15 13 14 15 14
31 32 35 36 35 33 33 34 33 30 30 31 33 35 34 35 34 34 33 33 32 31 30 28 30 27 26 23 23 22 20 19 19 17 16 14 16 18 18 17 16 17 17
26 30 37 36 36 31 31 31 31 30 32 32 30 33 35 36 36 35 36 37 37 35 32 28 28 29 30 29 27 26 22 23 23 20 19 20 21 22 21 21 21 20 19
27 32 34 36 35 32 30 19 24 27 31 29 29 29 33 34 35 37 37 39 36 35 32 31 30 28 30 30 30 29 27 25 24 25 26 27 25 25 24 25 25 24 24
28 32 33 33 32 32 24 22 23 23 23 28 30 32 34 35 33 36 36 39 39 35 34 33 32 30 30 33 32 32 29 28 27 26 29 28 25 25 25 25 24 26 26
27 30 32 32 29 21 25 21 21 20 23 23 23 31 32 35 36 37 38 40 39 34 36 35 28 27 28 34 36 35 32 29 27 30 29 31 29 27 25 25 25 27 26
30 32 33 29 25 18 18 23 24 22 20 25 27 26 30 30 38 39 40 36 39 37 38 34 37 36 36 30 19 24 29 30 31 31 32 29 29 29 26 25 25 26 27
35 38 36 33 26 18 12 11 15 16 18 22 23 24 28 30 35 34 36 36 26 27 27 33 37 33 28 29 21 7 4 15 29 34 34 33 34 32 29 26 24 23 22
26 26 23 22 18 15 12 11 8 9 11 12 15 15 12 14 28 34 32 32 33 24 20 33 34 35 31 34 33 16 2 8 1 28 36 38 37 34 29 23 21 19 19
20 20 19 17 15 13 11 10 9 8 8 11 12 15 19 17 18 19 32 38 34 35 39 32 39 41 36 33 24 38 33 2 3 3 14 29 36 38 32 25 21 20 16
30 28 25 21 18 15 11 7 3 2 6 11 16 18 19 19 17 14 20 22 30 35 40 39 40 40 36 38 29 26 27 24 22 7 4 5 13 31 36 29 23 21 20
24 25 24 21 17 13 10 7 5 6 8 9 12 16 21 22 20 16 15 20 22 33 39 43 37 34 33 29 28 30 25 6 6 6 6 16 10 27 26 27 23 22 17
Wind_Direction
163 161 155 149 145 143 141 140 139 136 134 131 128 128 129 129 130 133 134 136 136 137 136 138 137 134 131 130 126 121 119 116 111 108 105 108 105 91 96 97 95 95 95
160 162 158 153 150 147 145 143 142 141 140 139 137 136 135 133 131 132 134 137 139 141 143 145 143 138 136 134 132 129 126 124 116 111 102 97 108 113 106 100 102 100 100
156 159 160 156 154 151 149 148 148 146 146 144 141 140 139 136 135 135 138 140 143 146 147 145 145 144 145 143 141 140 132 127 122 115 112 110 116 119 106 98 106 101 102
156 158 162 160 158 156 154 153 153 151 151 150 147 145 145 144 142 142 143 145 146 148 147 147 147 147 151 150 146 147 147 144 141 120 106 199 170 141 116 100 105 106 109
156 159 163 163 163 161 160 159 159 157 155 155 153 152 151 151 151 151 152 152 153 153 153 155 154 155 158 162 163 162 166 171 173 128 71 195 186 154 135 120 114 119 119
157 162 165 167 168 167 165 164 165 163 161 161 160 159 159 159 159 160 160 161 161 163 164 165 166 167 171 178 181 181 184 187 185 202 47 166 192 173 165 150 144 140 136
160 164 168 171 172 172 171 171 170 172 168 168 168 168 168 169 168 169 170 170 171 174 176 176 179 183 185 190 195 201 205 209 209 208 165 168 210 192 194 186 179 175 166
162 168 171 174 177 178 177 177 178 178 178 176 176 178 179 179 180 179 180 180 181 183 186 189 192 194 196 200 205 213 222 226 229 222 213 214 206 201 215 211 201 198 190
166 170 174 177 181 183 184 185 187 186 187 186 186 187 187 189 191 193 192 191 191 193 194 198 202 205 207 211 218 221 229 235 236 228 229 260 212 210 223 235 220 210 207
170 175 178 180 183 186 189 192 194 194 195 196 196 196 196 197 200 201 202 204 205 205 205 205 211 217 217 219 225 234 242 244 241 228 219 219 210 220 227 244 235 216 214
174 179 182 183 185 187 190 192 198 201 202 201 202 203 203 206 207 209 212 213 216 217 218 217 217 222 233 236 237 236 243 240 217 204 213 226 242 234 235 255 235 220 217
181 185 186 186 186 188 189 192 196 199 202 205 205 205 209 213 215 217 218 217 220 223 227 229 229 230 233 242 245 246 248 236 228 224 227 232 243 220 233 261 242 227 218
194 182 190 189 189 187 192 195 196 200 204 206 210 210 213 216 221 223 225 224 224 229 231 231 233 235 237 239 241 242 246 254 251 250 247 241 237 218 230 250 241 232 226
193 190 194 194 189 195 195 199 202 204 205 207 212 216 219 218 223 225 230 229 227 224 229 233 234 237 243 250 251 250 255 260 259 261 265 242 226 219 232 243 241 234 228
186 196 196 196 192 197 201 201 204 206 209 212 217 219 221 226 227 232 231 234 233 232 232 236 240 239 242 244 240 246 249 256 263 266 252 235 221 227 239 248 251 243 233
188 198 195 195 192 194 203 205 203 206 213 217 222 223 225 228 231 233 236 236 238 235 235 238 240 242 242 241 246 247 249 252 259 265 247 254 248 244 246 248 248 248 242
184 192 193 197 196 197 206 210 213 214 219 222 229 231 231 231 232 233 235 237 239 241 241 245 246 244 244 240 245 246 247 248 250 251 254 256 256 251 254 256 252 250 246
187 186 195 204 204 203 207 213 222 220 222 228 231 234 236 236 237 236 236 239 242 242 243 245 247 247 248 248 247 246 246 246 248 252 254 252 255 259 261 259 260 261 256
190 189 194 201 209 207 222 218 230 222 225 235 235 238 240 242 240 238 240 241 240 241 241 243 248 248 250 252 253 249 250 249 252 252 254 256 259 262 264 267 270 269 265
178 186 190 197 202 226 236 225 234 253 246 245 246 242 250 246 244 244 243 244 241 240 241 241 244 250 253 255 253 252 253 254 265 267 259 259 260 260 267 267 270 267 266
180 182 186 185 190 197 201 224 238 244 254 264 271 275 264 262 249 242 244 243 246 245 243 244 251 249 246 246 256 256 251 252 259 258 255 252 249 257 263 267 271 270 273
171 175 176 179 173 170 168 201 230 253 263 267 279 284 274 270 271 264 246 239 240 247 255 258 250 248 254 251 235 231 267 264 252 251 247 250 255 258 260 264 269 273 277
178 177 166 162 161 158 152 159 176 232 253 267 286 309 336 297 274 275 264 252 245 245 251 271 270 265 268 263 244 223 201 232 232 242 243 246 249 250 255 261 264 269 265
151 153 155 160 162 162 171 181 197 229 268 293 311 315 318 319 310 299 275 266 266 284 264 258 258 256 249 252 244 233 238 284 207 291 237 237 243 248 247 249 250 252 261
131 121 121 127 127 125 127 129 114 351 319 320 319 322 326 330 335 320 309 291 262 258 247 246 256 267 266 265 250 261 248 261 301 324 300 330 266 248 247 237 243 253 262
123 120 119 118 117 121 120 109 81 33 348 325 317 316 322 326 332 330 316 310 289 264 252 260 254 260 261 258 265 260 264 186 180 120 358 334 334 326 260 233 237 246 249